TimePST,TemperatureF,Dew PointF,Humidity,Sea Level PressureIn,VisibilityMPH,Wind Direction,Wind SpeedMPH,Gust SpeedMPH,PrecipitationIn,Events,Conditions,WindDirDegrees,DateUTC
12:56 AM,-8.0,-11.9,83,30.36,10.0,East,3.5,-,N/A,,Mostly Cloudy,80,2013-01-13 08:56:00
1:56 AM,-7.1,-11.9,79,30.35,10.0,Calm,Calm,-,N/A,,Overcast,0,2013-01-13 09:56:00
2:56 AM,-5.1,-9.0,83,30.35,10.0,Calm,Calm,-,N/A,,Overcast,0,2013-01-13 10:56:00
3:56 AM,-5.1,-8.0,87,30.32,10.0,Calm,Calm,-,N/A,,Overcast,0,2013-01-13 11:56:00
4:56 AM,-4.0,-8.0,83,30.34,10.0,Calm,Calm,-,N/A,,Overcast,0,2013-01-13 12:56:00
5:56 AM,-2.9,-7.1,82,30.37,10.0,Calm,Calm,-,N/A,,Overcast,0,2013-01-13 13:56:00
7:56 AM,-0.9,-6.0,79,30.43,10.0,East,6.9,-,N/A,,Scattered Clouds,90,2013-01-13 15:56:00
8:56 AM,1.9,-2.0,83,30.42,10.0,ENE,3.5,-,N/A,,Overcast,70,2013-01-13 16:56:00
9:56 AM,5.0,-0.0,80,30.40,10.0,East,3.5,-,N/A,,Partly Cloudy,100,2013-01-13 17:56:00
10:56 AM,7.0,1.0,77,30.39,10.0,Calm,Calm,-,N/A,,Clear,0,2013-01-13 18:56:00
11:56 AM,9.0,1.9,73,30.38,10.0,Calm,Calm,-,N/A,,Clear,0,2013-01-13 19:56:00
12:56 PM,10.9,3.0,70,30.37,10.0,SW,4.6,-,N/A,,Clear,230,2013-01-13 20:56:00
1:56 PM,12.9,3.0,65,30.37,10.0,SW,3.5,-,N/A,,Clear,220,2013-01-13 21:56:00
2:56 PM,12.9,3.0,65,30.38,10.0,SSW,6.9,-,N/A,,Mostly Cloudy,210,2013-01-13 22:56:00
3:56 PM,10.9,1.9,67,30.40,10.0,South,4.6,-,N/A,,Clear,190,2013-01-13 23:56:00
4:56 PM,6.1,-0.0,76,30.43,10.0,South,8.1,-,N/A,,Clear,190,2013-01-14 00:56:00
5:56 PM,-2.0,-7.1,79,30.48,10.0,West,3.5,-,N/A,,Clear,260,2013-01-14 01:56:00
6:56 PM,-0.9,-6.0,79,30.48,10.0,Calm,Calm,-,N/A,,Clear,0,2013-01-14 02:56:00
7:49 PM,-5.8,-7.6,92,30.17,0.8,Calm,Calm,-,N/A,,Mist,0,2013-01-14 03:49:00
7:56 PM,-6.0,-9.0,87,30.50,0.2,Calm,Calm,-,N/A,Fog,Light Freezing Fog,0,2013-01-14 03:56:00
8:01 PM,-5.8,-9.4,84,30.17,1.5,Calm,Calm,-,N/A,,Mostly Cloudy,0,2013-01-14 04:01:00
8:07 PM,-7.6,-11.2,84,30.17,10.0,Calm,Calm,-,N/A,,Scattered Clouds,0,2013-01-14 04:07:00
8:45 PM,-5.8,-11.2,77,30.18,1.0,Calm,Calm,-,N/A,,Haze,0,2013-01-14 04:45:00
8:49 PM,-5.8,-9.4,84,30.18,0.2,Calm,Calm,-,N/A,Fog,Light Freezing Fog,0,2013-01-14 04:49:00
8:56 PM,-7.1,-9.9,87,30.50,0.2,Calm,Calm,-,N/A,Fog,Light Freezing Fog,0,2013-01-14 04:56:00
9:08 PM,-7.6,-11.2,84,30.18,1.0,Calm,Calm,-,N/A,,Mist,0,2013-01-14 05:08:00
9:17 PM,-7.6,-11.2,84,30.18,10.0,Calm,Calm,-,N/A,,Partly Cloudy,0,2013-01-14 05:17:00
9:56 PM,-9.0,-11.9,87,30.51,10.0,Calm,Calm,-,N/A,,Clear,0,2013-01-14 05:56:00
10:56 PM,-8.0,-11.9,83,30.52,9.0,East,5.8,-,N/A,,Clear,80,2013-01-14 06:56:00
11:56 PM,-9.9,-15.0,78,30.53,10.0,East,6.9,-,N/A,,Clear,80,2013-01-14 07:56:00